Regional Weather Roundup
Issued by NWS

Home | Current Version | Previous Version | Graphics & Text | Print | Product List | Glossary On
Versions: 1 2 3 4 5 6 7 8 9 10 11 12 13 14 15 16 17 18 19 20 21 22 23 24 25 26 27 28 29 30 31 32 33 34 35 36 37 38 39 40 41 42 43 44 45 46 47 48
000
ASUS45 KCYS 280410
RWRWY

WYOMING REGIONAL WEATHER ROUNDUP
NATIONAL WEATHER SERVICE CHEYENNE WY
1000 PM MDT SUN JUL 27 2014

NOTE:  "FAIR" INDICATES FEW OR NO CLOUDS BELOW 12,000 FEET
WITH NO SIGNIFICANT WEATHER AND/OR OBSTRUCTIONS TO VISIBILITY.

WYZ001-280500-
YELLOWSTONE NATIONAL PARK

CITY           SKY/WX    TMP DP  RH WIND       PRES   REMARKS
LK YELLOWSTONE   N/A     52  38  58 CALM      30.49R
W YELLOWSTONE  NOT AVBL

$$
WYZ002>013-054>058-071-098>099-280500-
NORTHERN WYOMING

CITY           SKY/WX    TMP DP  RH WIND       PRES   REMARKS
JACKSON        PTCLDY    64  37  36 CALM      30.34R
CODY           NOT AVBL
GREYBULL       PTCLDY    81  39  22 NW10      30.19R
WORLAND        MOCLDY    76  30  18 SE10      30.22R
SHERIDAN       CLEAR     65  48  54 VRB3      30.28R
BUFFALO        PTCLDY    63  42  46 W7        30.37R
GILLETTE       PTCLDY    60  43  53 E3        30.32R
HULETT         FAIR      64  50  59 MISG      30.34
NEWCASTLE      FAIR      70  39  32 E13       30.32

$$
WYZ014>020-022>026-101>103-280500-
CENTRAL WYOMING

CITY           SKY/WX    TMP DP  RH WIND       PRES   REMARKS
BIG PINEY      CLEAR     67  24  19 E9        30.39R
PINEDALE       PTCLDY    59  36  41 W3        30.41R
DUBOIS         FAIR      63  27  25 S6        30.44R
LANDER         CLEAR     71  30  21 W15       30.30R
RIVERTON       CLEAR     76  24  14 NE8       30.31R
CASPER         CLEAR     71  44  37 E6        30.32R
DOUGLAS        PTCLDY    72  44  36 E13       30.34R

$$
WYZ021-027>030-104>119-280500-
SOUTHERN WYOMING

CITY           SKY/WX    TMP DP  RH WIND       PRES   REMARKS
EVANSTON       PTCLDY    73  22  14 E6        30.36R
KEMMERER       CLEAR    N/A N/A N/A E5        30.40R
FORT BRIDGER   FAIR      74  17  12 E8        30.39R
ROCK SPRINGS   CLEAR     70  21  15 E12       30.35R
DIXON          FAIR      73  38  28 NE6       30.36R
RAWLINS        CLEAR     68  51  54 NE15      30.41R
SARATOGA       FAIR      66  48  52 SW6       30.41R
LARAMIE        PTCLDY    64  53  67 SE8       30.46R
CHEYENNE       CLEAR     66  47  50 E8        30.42R
TORRINGTON     PTCLDY    70  53  54 E10       30.29R
PINE BLUFFS    CLOUDY    70  45  40 SE9G16    30.38R

$$


USA.gov is the U.S. government's official web portal to all federal, state and local government web resources and services.